Location: Ferris
(32.5340°N, 96.6656°W)
Time: 06:51:51
(UTC+00:00)

ISS - Pass Details

Date: 14 May 2026
Orbit: 415 x 423 km, 51.6° (Epoch: 10 June)

Event Time Altitude Azimuth Distance (km) Brightness Sun altitude
Rises 01:39:33 0° 270° (W) 2,346 1.4 -5.2°
Reaches altitude 10° 01:42:36 10° 301° (WNW) 1,485 0.9 -5.8°
Maximum altitude 01:44:10 13° 329° (NNW) 1,331 -0.2 -6.1°
Drops below altitude 10° 01:45:45 10° 358° (N) 1,487 -0.5 -6.3°
Enters shadow 01:55:19 -16° 49° (NE) 4,765 1.4 -8.1°
